Regional Weather Roundup
Issued by NWS

Home | Current Version | Previous Version | Graphics & Text | Print | Product List | Glossary On
Versions: 1 2 3 4 5 6 7 8 9 10 11 12 13 14 15 16 17 18 19 20 21 22 23 24 25 26 27 28 29 30 31 32 33 34 35 36 37 38 39 40 41 42 43 44 45 46 47 48 49 50
000
ASUS45 KTFX 030810
RWRMT
MONTANA REGIONAL WEATHER ROUNDUP
NATIONAL WEATHER SERVICE GREAT FALLS MT
200 AM MDT MON AUG 03 2015

NOTE: "FAIR" INDICATES FEW OR NO CLOUDS BELOW 12000 FEET WITH NO
SIGNIFICANT WEATHER AND/OR OBSTRUCTIONS TO VISIBILITY.

MTZ001>007-043-030900-
WEST OF THE DIVIDE

CITY           SKY/WX    TMP DP  RH WIND       PRES   REMARKS
KALISPELL      MOSUNNY   55  38  52 W5        29.88S
MISSOULA       MOCLDY    63  36  36 CALM      29.92R
BUTTE          CLEAR     57  35  43 VRB5      30.07F
MULLAN PASS    PTCLDY    72  19  13 NE3       30.10F
DEER LODGE       N/A     55  39  54 CALM      30.05S
EUREKA           N/A     64  34  32 CALM      29.87S
HAMILTON         N/A     61  41  48 S3        29.92S
LIBBY            N/A     61  30  31 CALM      29.88S
PLAINS           N/A     59  44  57 CALM      29.89S
RONAN            N/A     57  42  57 CALM      29.94F
$$

MTZ008-052>055-030900-
SOUTHWEST MONTANA

CITY           SKY/WX    TMP DP  RH WIND       PRES   REMARKS
BOZEMAN        PTCLDY    58  46  64 NW9       30.00F
DILLON         PTCLDY    57  37  47 SE6       30.02F
W YELLOWSTONE  PTCLDY    46  39  76 CALM      30.15F
THREE FORKS      N/A     52  52 100 CALM      29.99F
TWIN BRIDGES     N/A     59  38  45 SE5       30.00S
$$

MTZ009-010-012-014-046-048-049-054-030900-
EAST SLOPES AND CENTRAL MONTANA

CITY           SKY/WX    TMP DP  RH WIND       PRES   REMARKS
CUT BANK       CLEAR     61  48  62 E8        29.98S
GREAT FALLS    CLEAR     68  45  43 SE10      29.95F
MALMSTROM AFB  CLEAR     66  49  53 S3        29.95F
HELENA         PTCLDY    68  41  37 CALM      29.98S
$$

MTZ011-013-016-021-045-047-050-051-030900-
NORTH CENTRAL MONTANA

CITY           SKY/WX    TMP DP  RH WIND       PRES   REMARKS
HAVRE          CLEAR     63  53  70 E14       29.95F
LEWISTOWN      CLEAR     67  46  47 E13       30.04S
CHINOOK          N/A     63  54  72 E6        29.98F
FORT BENTON      N/A     70  48  46 NE10      29.93F
$$

MTZ017>020-022>027-061-062-030900-
NORTHEAST MONTANA

CITY           SKY/WX    TMP DP  RH WIND       PRES   REMARKS
GLASGOW        CLEAR     60  47  61 SE9       30.01S
JORDAN           N/A     62  47  57 E6        30.02S
SIDNEY         CLEAR     57  46  67 NW6       30.02F
WOLF POINT     CLEAR     58  48  69 E5        30.03F
MALTA            N/A     64  49  58 CALM      29.97F
PLENTYWOOD       N/A     57  52  82 NW3       30.04S
POPLAR           N/A     55  50  82 CALM      30.04S
$$

MTZ028>42-056>058-030900-
SOUTHCENTRAL AND SOUTHEAST MONTANA

CITY           SKY/WX    TMP DP  RH WIND       PRES   REMARKS
BAKER          CLEAR     57  46  66 CALM      30.06S
BILLINGS       CLEAR     66  44  45 N8        30.00F
LIVINGSTON     PTCLDY    67  40  37 E12       30.04S
MILES CITY     CLEAR     63  48  58 N9        30.01F
EKALAKA          N/A     63  44  49 SE6       30.04F
FORSYTH          N/A     64  48  55 E3        30.00F
LAUREL           N/A     67  42  40 N6        29.99F
ROUNDUP          N/A     62  43  49 CALM      29.94F
$$

REGIONAL REPORTS...DAKOTAS

CITY           SKY/WX    TMP DP  RH WIND       PRES   REMARKS
WILLISTON      CLEAR     56  49  77 NE3       30.03F
MINOT          CLEAR     55  49  80 SW7       29.98S
DICKINSON      CLEAR     52  47  83 CALM      30.02F
CROSBY         FAIR      50  50 100 SW6       30.03F
BISMARCK       CLEAR     58  53  84 W6        29.99S
GRAND FORKS    CLEAR     51  47  86 W7        29.88R
FARGO          CLEAR     54  48  80 W6        29.89S
BUFFALO SD       N/A     61  49  64 E8        29.98F
RAPID CITY     CLEAR     60  52  74 CALM      30.04S
$$

REGIONAL REPORTS...WYOMING/IDAHO/WASHINGTON

CITY           SKY/WX    TMP DP  RH WIND       PRES   REMARKS
GILLETTE       PTCLDY    59  49  69 CALM      30.06S
SHERIDAN       PTCLDY    60  45  57 CALM      30.03F
BUFFALO WY     PTCLDY    63  43  48 VRB3      30.10F
CODY           PTCLDY    64  39  39 S6        30.07F
YELLOWSTONE LA   N/A     48  36  63 NW3       30.26F
IDAHO FALLS    MOCLDY    57  47  69 CALM      29.97R
SALMON         MOCLDY    59  45  58 CALM      29.91F
BOISE          MOCLDY    84  48  28 W18       29.83R
SPOKANE        MOCLDY    77  28  16 SW7       29.82S
$$

REGIONAL REPORTS...ALBERTA

CITY           SKY/WX    TMP DP  RH WIND       PRES   REMARKS
EDMONTON       MOCLDY    64  54  68 SE6       29.92F
CALGARY        PTCLDY    64  52  63 S9        29.95F
LETHBRIDGE     CLEAR     55  50  82 W2        29.92F
MEDICINE HAT   CLEAR     66  54  63 NE7       29.94F
WATERTON GATE    N/A     50  46  87 SW2         N/A
CARDSTON         N/A     59  46  63 SE5         N/A
ONEFOUR          N/A     61  52  72 E14         N/A
$$

REGIONAL REPORTS...SASKATCHEWAN

CITY           SKY/WX    TMP DP  RH WIND       PRES   REMARKS
SWIFT CURRENT  CLEAR     57  52  82 S8        30.03S
REGINA         CLEAR     52  52 100 CALM      30.02S
SASKATOON      CLEAR     54  52  94 CALM      30.01S
CYPRESS HILLS    N/A     57  48  72 SE8         N/A
VAL MARIE        N/A     55  50  82 N2          N/A
ROCKGLEN         N/A     57  50  77 S5          N/A
ASSINIBOIA       N/A     61  54  77 SE7         N/A
$$


USA.gov is the U.S. government's official web portal to all federal, state and local government web resources and services.